This is the latest recevied weather packets stored in our database for station/object KF7SOJ. If no packets are shown the sender has not sent any weather packets the latest 10 day(s).
| Time | Temp. | Humidity | Pressure | Rain* | Wind** | Luminosity | Snow |
|---|---|---|---|---|---|---|---|
| 1787781068 | 31.67° C | 26% | 935.4 hPa | 0 mm | - | 636 W/m² | - |
| 1787780767 | 31.67° C | 27% | 935.4 hPa | 0 mm | - | 651 W/m² | - |
| 1787780467 | 31.67° C | 27% | 935.4 hPa | 0 mm | - | 663 W/m² | - |
| 1787780163 | 31.67° C | 27% | 935.3 hPa | 0 mm | - | 663 W/m² | - |
| 1787779858 | 32.22° C | 27% | 935.4 hPa | 0 mm | - | 659 W/m² | - |
| 1787779558 | 31.67° C | 27% | 935.4 hPa | 0 mm | - | 705 W/m² | - |
| 1787779253 | 31.11° C | 28% | 935.5 hPa | 0 mm | - | 718 W/m² | - |
| 1787778953 | 31.11° C | 28% | 935.7 hPa | 0 mm | - | 678 W/m² | - |
| 1787778649 | 31.67° C | 27% | 935.7 hPa | 0 mm | - | 744 W/m² | - |
| 1787778343 | 31.11° C | 28% | 935.9 hPa | 0 mm | - | 744 W/m² | - |
| 1787778040 | 31.67° C | 27% | 935.8 hPa | 0 mm | - | 757 W/m² | - |
| 1787777733 | 31.11° C | 28% | 935.8 hPa | 0 mm | - | 773 W/m² | - |
| 1787777431 | 30.56° C | 28% | 936.2 hPa | 0 mm | - | 752 W/m² | - |
| 1787777130 | 30.56° C | 28% | 936.1 hPa | 0 mm | - | 759 W/m² | - |
| 1787776829 | 30.56° C | 27% | 936.2 hPa | 0 mm | - | 788 W/m² | - |
| 1787776528 | 30.56° C | 28% | 936.3 hPa | 0 mm | - | 782 W/m² | - |
| 1787776227 | 30.56° C | 28% | 936.5 hPa | 0 mm | - | 788 W/m² | - |
| 1787775926 | 30° C | 30% | 936.4 hPa | 0 mm | - | 812 W/m² | - |
| 1787775621 | 30° C | 29% | 936.4 hPa | 0 mm | - | 817 W/m² | - |
| 1787775319 | 30° C | 28% | 936.3 hPa | 0 mm | - | 834 W/m² | - |
| 1787775014 | 30° C | 29% | 936.4 hPa | 0 mm | - | 705 W/m² | - |
| 1787774713 | 29.44° C | 30% | 936.6 hPa | 0 mm | - | 845 W/m² | - |
| 1787774413 | 29.44° C | 31% | 936.8 hPa | 0 mm | - | 845 W/m² | - |
| 1787774108 | 28.89° C | 32% | 936.9 hPa | 0 mm | - | 868 W/m² | - |
| 1787773806 | 28.89° C | 32% | 936.9 hPa | 0 mm | - | 846 W/m² | - |
* Rain latest hour (hover to see other rain measurements)
** Current wind speed in m/s (hover to see current wind gust speed)